Location: Bruch
(44.2051°N, 0.4120°E)
Time: 17:32:56
(UTC+00:00)

Genesis I - Pass Details

Date: 29 November 2020
Orbit: 493 x 527 km, 64.5° (Epoch: 22 January)

Event Time Altitude Azimuth Distance (km) Brightness Sun altitude
Exits shadow 05:25:30 24° 219° (SW) 1,055 4.5 -18.5°
Maximum altitude 05:27:39 83° 303° (WNW) 510 3.0 -18.2°
Drops below altitude 10° 05:31:31 10° 34° (NE) 1,722 6.1 -17.5°
Sets 05:33:42 0° 35° (NE) 2,617 7.1 -17.1°
